Tracking 22223 objects as of 26-Jan-2021
HD Live streaming from Space Station
objects crossing your sky now

WESTFORD NEEDLES

Track WESTFORD NEEDLES now!
10-day predictions
WESTFORD NEEDLES is classified as:


NORAD ID: 19109
Int'l Code: 1963-014EJ
Perigee: 2,716.5 km
Apogee: 4,520.5 km
Inclination: 87.1 °
Period: 165.6 minutes
Semi major axis: 9989 km
RCS: 0.124 m2 (medium)
Launch date: May 9, 1963
Source: United States (US)
Launch site: AIR FORCE WESTERN TEST RANGE (AFWTR)
aabbcc
Your satellite tracking list
Your tracking list is empty




NASA's NSSDC Master Catalog

Two Line Element Set (TLE):
1 19109U 63014EJ  21025.05272879 -.00001613  00000-0 -48122+0 0  9993
2 19109  87.0967 267.5832 0902935 204.8446 150.6238  8.69532459287304
Source of the keplerian elements: AFSPC